Location: Unspecified
(0.0000°N, 0.0000°E)
Time: 11:22:21
(UTC+00:00)

SICH 2 - Pass Details

Date: 09 June 2023
Orbit: 674 x 694 km, 97.8° (Epoch: 22 September)

Event Time Altitude Azimuth Distance (km) Brightness Sun altitude
Rises 19:51:48 0° 201° (SSW) 3,048 ? -25.7°
Reaches altitude 10° 19:54:59 10° 224° (SW) 2,124 ? -26.4°
Maximum altitude 19:57:32 15° 258° (WSW) 1,816 ? -27.0°
Drops below altitude 10° 20:00:06 10° 292° (WNW) 2,112 ? -27.6°
Sets 20:03:15 0° 315° (NW) 3,019 ? -28.3°
